Location: Geroldsau
(48.7259°N, 8.2466°E)
Time: 16:07:04
(UTC+00:00)

CZ-4C R/B - Pass Details

Date: 20 June 2021
Orbit: 464 x 632 km, 98.0° (Epoch: 31 July)

Event Time Altitude Azimuth Distance (km) Brightness Sun altitude
Exits shadow 02:19:47 - 170° (S) 2,388 6.2 -8.3°
Reaches altitude 10° 02:21:35 10° 172° (S) 1,618 5.3 -8.2°
Maximum altitude 02:25:01 71° 256° (WSW) 496 2.9 -7.8°
Drops below altitude 10° 02:28:30 10° 342° (NNW) 1,638 6.2 -7.4°
Sets 02:30:35 0° 345° (NNW) 2,531 7.2 -7.2°
